User: anonymous   Login
Location: Unspecified
(0.0000°N, 0.0000°E)
Time: 09:36:48
(UTC+00:00)
Language:

METEOR-M - Orbit

View from above orbital plane
View from above orbital plane
View from above satellite
View from above satellite

Ground track
Ground track

The orbit data is extracted from the following two-line orbital elements,

1 35865U 09049A   16149.66548914  .00000010  00000-0  23240-4 0  9999
2 35865  98.4570 181.7723 0002584 161.0673 199.0602 14.22068160347443
Epoch (UTC): 28 May 2016 15:58:18
Eccentricity: 0.0002584
inclination: 98.4570°
perigee height: 816 km
apogee height: 820 km
right ascension of ascending node: 181.7723°
argument of perigee: 161.0673°
revolutions per day: 14.22068160
mean anomaly at epoch: 199.0602°
orbit number at epoch: 34744

The dashed part of the orbit path shows where the satellite is in the earth's shadow,  

DLR